Wind_Speed
13 12 10 8 6 5 4 3 2 1 1 1 1 1 1 2 3 3 3 4 5 5 5 5 6 6 6 6 7 7 8 9 9 10 10 11 12 12 12 12 12 13 13
14 13 11 8 6 4 3 3 3 3 2 2 3 3 3 4 4 4 5 5 6 6 6 6 6 6 7 7 7 8 8 7 8 9 10 10 10 10 10 11 11 12 13
15 16 12 10 7 5 4 4 3 2 3 3 4 5 5 6 7 7 7 7 7 7 7 7 7 8 8 8 8 8 8 8 8 8 10 11 11 10 10 10 10 12 13
17 17 14 10 7 6 5 4 3 3 3 4 5 6 7 8 8 9 9 9 9 9 9 9 9 10 10 10 10 9 9 10 10 11 11 11 12 12 12 12 12 12 13
19 17 14 11 9 7 6 5 4 3 4 4 5 6 8 9 9 10 10 11 10 10 10 10 10 10 10 10 10 10 10 11 12 12 12 12 12 12 13 14 14 14 14
20 15 13 11 9 8 7 5 4 4 4 5 6 7 7 8 9 8 7 7 7 8 7 7 8 8 8 9 10 10 10 11 12 13 14 14 14 13 13 14 16 17 16
19 16 14 12 10 8 8 5 4 4 5 6 6 4 4 4 4 5 6 6 6 6 6 6 7 7 7 7 8 9 11 12 14 15 17 19 19 19 16 15 15 17 18
19 18 15 13 12 11 8 6 5 6 6 6 4 2 2 3 4 5 5 5 5 6 6 6 6 7 7 8 9 11 13 15 16 18 20 23 23 24 24 23 19 17 17
19 20 17 16 15 12 9 7 6 8 6 5 4 3 3 3 4 5 6 6 6 6 7 7 8 9 9 9 10 12 14 17 19 21 24 25 26 26 24 25 24 24 22
22 22 19 19 17 14 11 9 7 10 9 7 6 6 5 4 5 5 6 7 8 8 8 8 9 9 9 10 13 15 17 20 22 24 25 26 27 27 25 25 24 24 24
23 24 21 21 20 17 14 11 11 9 11 10 10 8 7 6 6 6 6 7 8 9 9 9 10 10 11 13 15 18 21 24 26 28 28 29 29 28 27 27 25 24 24
21 25 24 24 22 20 16 14 13 12 12 13 12 10 9 8 7 7 6 7 8 9 10 11 12 13 15 16 19 21 22 24 27 28 28 29 30 30 28 28 27 27 27
20 25 26 26 24 22 19 17 14 14 14 15 15 12 10 10 9 9 8 8 9 10 12 13 15 16 17 18 20 21 23 26 29 29 29 30 30 31 30 29 29 27 27
25 26 27 28 26 24 22 19 17 16 17 17 17 16 13 12 12 11 10 10 11 12 13 15 16 17 18 19 21 22 25 27 29 30 29 29 30 31 31 31 31 29 28
26 30 30 29 30 27 24 22 20 19 19 20 20 18 17 16 14 13 13 13 13 14 15 16 17 18 19 20 22 23 26 27 28 30 29 29 30 30 30 30 30 30 30
28 31 31 32 32 29 27 25 23 22 21 22 22 21 19 19 17 16 15 15 15 15 16 17 19 19 20 21 22 24 26 27 29 30 31 30 30 30 30 29 29 29 30
29 33 33 33 34 32 29 28 26 25 24 24 24 24 22 21 20 19 18 17 17 17 18 18 19 19 20 21 23 24 26 28 29 30 30 31 31 29 29 29 29 30 31
30 32 34 35 35 34 32 30 28 28 27 26 26 26 24 23 22 22 21 20 19 20 20 20 20 20 20 20 23 25 27 28 28 28 29 29 29 29 28 29 29 30 30
32 34 35 36 34 35 34 32 31 31 31 29 28 28 27 26 25 25 24 22 21 22 22 21 20 19 19 20 22 25 28 28 28 27 28 27 27 27 28 28 30 30 31
36 37 38 37 35 37 37 36 34 34 33 31 30 30 29 29 28 27 27 25 24 23 22 21 19 18 18 20 23 26 28 28 27 26 27 27 28 29 29 30 32 33 33
36 38 40 39 38 38 40 38 36 35 33 32 32 32 31 31 31 30 29 28 26 23 22 21 19 18 19 21 23 26 27 25 24 23 25 27 28 29 30 30 31 33 35
36 37 40 39 39 40 41 40 38 36 34 34 34 34 34 34 34 32 31 29 27 25 23 21 19 18 19 21 23 24 25 23 21 23 24 25 27 29 30 31 32 31 31
42 42 41 40 40 41 39 40 41 38 36 36 36 36 36 36 35 33 32 30 28 25 23 21 20 18 20 21 22 22 21 21 22 22 23 24 25 26 26 27 28 28 28
41 43 43 42 44 43 43 42 40 38 36 35 35 35 36 37 36 34 33 31 29 26 24 22 20 20 20 21 22 21 20 19 19 22 21 23 23 24 23 24 24 23 25
39 38 39 42 45 46 44 42 40 41 39 37 37 37 37 37 37 36 34 31 29 26 26 23 22 21 22 22 22 21 20 19 18 18 21 21 21 21 21 21 22 22 23
36 36 39 43 45 46 48 43 45 45 41 38 37 37 38 39 38 36 34 32 29 28 26 25 23 23 23 22 23 23 23 21 19 16 17 18 19 19 20 20 21 21 22
Wind_Direction
216 207 202 198 183 173 171 157 150 187 236 241 302 326 2 0 343 340 339 342 351 358 2 3 2 0 358 356 353 354 360 359 0 2 0 2 2 4 7 5 3 1 360
213 213 211 209 197 200 203 204 200 217 236 264 283 299 315 315 308 313 317 319 326 331 333 336 329 323 324 327 328 331 337 343 345 346 347 347 350 350 354 359 357 1 358
209 207 212 217 205 212 225 229 231 247 267 286 291 295 298 297 300 299 302 307 310 306 309 306 301 303 307 311 315 318 321 322 327 331 334 336 335 336 337 344 349 345 344
213 208 211 217 211 219 236 241 252 259 270 285 294 294 289 282 281 285 290 291 291 296 296 294 297 298 300 304 310 315 319 320 324 325 328 328 328 328 329 332 334 333 331
214 208 210 213 213 215 229 246 253 268 285 284 281 281 283 289 290 289 289 288 290 286 287 289 291 294 299 304 306 314 318 322 323 322 321 320 318 320 321 324 324 322 325
222 211 212 213 216 216 223 235 258 264 271 273 285 285 283 279 283 280 274 270 271 272 276 280 282 284 292 299 306 315 322 324 325 324 321 317 313 313 314 313 312 312 315
230 218 215 214 217 219 227 234 263 270 272 270 271 281 289 282 280 285 285 280 277 280 284 288 295 299 305 315 323 331 334 334 331 327 324 320 320 319 314 309 303 304 306
230 224 216 217 216 222 233 239 263 266 263 265 250 250 267 295 302 301 300 308 311 312 311 315 317 319 324 328 329 330 331 329 327 324 320 318 316 314 316 316 314 307 301
230 225 219 219 220 225 231 243 266 269 244 235 236 226 238 278 294 309 310 310 305 302 301 302 307 308 311 320 326 330 329 326 323 320 317 316 314 313 314 310 309 309 307
230 228 221 220 223 227 231 246 254 267 238 216 223 227 240 255 283 299 303 304 300 299 298 301 301 303 311 318 323 325 324 322 320 318 317 313 311 312 311 306 305 303 303
236 229 225 226 226 228 232 240 250 248 244 223 216 225 245 260 280 291 299 307 306 306 309 309 305 305 308 313 318 322 324 324 321 319 319 318 315 311 310 308 307 303 297
236 228 228 226 228 229 233 238 247 249 236 238 228 225 242 254 268 280 290 305 308 309 311 310 311 310 311 314 319 322 321 320 319 321 322 317 316 315 313 310 307 303 299
232 235 230 228 228 232 235 238 242 252 244 237 242 240 240 252 262 274 289 301 308 313 315 315 312 308 309 315 316 318 322 323 322 323 320 318 316 314 314 312 309 306 300
227 229 230 228 231 234 238 239 241 245 248 238 240 251 254 255 260 271 283 293 304 312 317 315 307 304 306 310 315 320 323 322 319 317 316 314 311 310 309 307 305 302 299
230 226 228 228 230 234 239 242 243 243 246 247 240 245 257 260 263 270 280 292 304 309 311 309 304 302 306 312 316 318 319 317 315 313 312 310 308 306 304 303 301 300 299
229 227 228 230 230 234 238 243 246 246 245 246 247 248 253 262 267 271 279 289 296 301 303 304 302 302 305 310 312 314 316 316 314 313 312 310 308 305 304 301 299 297 296
229 228 230 231 233 235 238 242 247 248 249 249 248 249 252 259 266 271 276 283 289 293 298 300 299 300 305 308 313 317 318 316 314 312 310 308 307 305 303 301 300 298 295
230 228 230 233 234 236 239 243 248 251 250 251 251 253 255 259 264 269 275 279 286 291 294 297 299 300 303 310 315 317 316 313 311 310 308 307 305 304 303 301 299 297 295
233 226 231 232 235 237 240 244 249 253 251 252 253 255 258 261 266 271 276 281 285 287 291 295 296 297 303 310 313 314 313 311 309 307 305 303 301 301 302 301 299 299 296
238 231 232 233 236 239 240 243 248 252 252 253 254 256 258 261 265 269 274 278 280 284 288 290 291 295 303 309 314 315 312 309 306 305 304 305 304 305 304 302 301 298 297
237 235 233 234 236 240 242 244 250 254 255 255 257 257 259 261 264 267 271 275 278 283 286 287 289 293 300 308 312 312 307 305 303 304 303 302 301 300 300 301 301 300 300
238 237 237 238 240 242 244 245 248 252 252 252 254 255 256 259 262 265 269 274 278 281 284 283 285 291 300 305 310 310 309 303 302 303 300 300 301 301 301 303 302 302 303
240 240 238 240 243 245 246 247 248 250 250 251 251 253 256 258 261 264 268 272 276 278 280 279 279 287 295 304 308 305 307 303 306 304 299 299 298 299 299 299 301 304 305
245 245 246 245 247 246 247 249 251 255 257 258 256 256 256 258 259 262 265 270 273 276 276 274 277 285 293 301 304 307 306 303 300 302 300 302 301 301 303 302 301 303 302
250 249 250 250 250 249 249 249 252 253 254 253 251 251 252 254 257 260 263 267 270 273 273 272 277 283 293 298 304 304 305 305 301 300 301 301 298 299 297 294 294 295 295
249 252 251 250 250 249 248 243 243 250 253 255 254 254 254 254 255 258 261 264 267 268 268 270 277 285 291 297 302 304 307 307 300 298 296 295 294 292 288 288 290 292 293
Height
3163 3164 3164 3165 3166 3167 3168 3168 3169 3170 3171 3172 3172 3172 3172 3172 3173 3173 3173 3172 3172 3172 3172 3172 3171 3171 3171 3170 3169 3169 3169 3168 3167 3166 3165 3163 3163 3162 3160 3159 3158 3156 3154
3162 3163 3164 3165 3165 3166 3167 3168 3169 3170 3170 3171 3171 3172 3171 3172 3172 3172 3171 3171 3171 3171 3171 3171 3170 3169 3169 3168 3168 3168 3167 3167 3166 3165 3164 3163 3162 3161 3160 3159 3158 3156 3154
3161 3162 3163 3165 3165 3165 3166 3167 3168 3169 3170 3170 3171 3171 3171 3171 3170 3170 3169 3169 3169 3169 3169 3169 3168 3168 3167 3167 3167 3166 3166 3165 3165 3164 3163 3161 3160 3159 3158 3157 3156 3155 3154
3160 3161 3163 3164 3164 3165 3165 3166 3167 3168 3169 3169 3169 3170 3170 3169 3169 3168 3168 3168 3168 3168 3167 3167 3166 3166 3165 3165 3165 3164 3164 3163 3163 3162 3161 3160 3158 3157 3156 3156 3155 3154 3152
3158 3159 3162 3164 3164 3164 3165 3166 3166 3167 3167 3167 3168 3168 3169 3168 3168 3168 3168 3167 3167 3166 3165 3164 3164 3164 3164 3163 3162 3162 3162 3161 3160 3160 3159 3158 3156 3155 3154 3153 3152 3151 3150
3157 3159 3161 3163 3164 3164 3165 3166 3165 3166 3166 3166 3167 3167 3168 3167 3167 3167 3166 3165 3165 3164 3163 3163 3163 3162 3162 3161 3160 3160 3160 3159 3158 3157 3156 3155 3154 3153 3153 3152 3150 3148 3148
3157 3157 3160 3162 3163 3164 3164 3164 3164 3164 3165 3165 3165 3165 3165 3166 3165 3165 3165 3164 3163 3162 3162 3162 3161 3161 3160 3160 3160 3160 3159 3158 3157 3156 3154 3152 3151 3150 3150 3149 3147 3147 3146
3154 3156 3158 3160 3162 3163 3163 3163 3163 3163 3163 3163 3163 3163 3163 3164 3164 3163 3163 3162 3162 3161 3161 3160 3160 3160 3159 3159 3159 3159 3158 3157 3156 3154 3152 3151 3149 3148 3148 3147 3146 3144 3142
3151 3154 3156 3158 3160 3161 3161 3161 3161 3162 3161 3161 3162 3162 3162 3162 3162 3162 3161 3160 3160 3159 3159 3159 3158 3158 3157 3157 3157 3157 3156 3155 3153 3151 3150 3147 3145 3144 3145 3143 3142 3141 3140
3148 3151 3153 3155 3157 3158 3158 3159 3159 3160 3160 3159 3160 3161 3161 3160 3160 3160 3160 3159 3159 3158 3158 3157 3156 3155 3155 3155 3154 3154 3152 3151 3149 3148 3145 3143 3141 3140 3139 3138 3138 3137 3135
3145 3148 3151 3153 3154 3155 3155 3156 3157 3156 3158 3157 3157 3158 3159 3158 3159 3158 3158 3157 3157 3156 3155 3155 3154 3153 3153 3152 3151 3150 3148 3147 3145 3143 3141 3139 3137 3135 3135 3134 3133 3132 3131
3142 3144 3147 3149 3151 3152 3153 3153 3154 3153 3154 3156 3155 3154 3155 3156 3156 3156 3155 3155 3154 3153 3152 3152 3151 3151 3150 3149 3148 3147 3145 3144 3141 3139 3137 3134 3132 3131 3130 3129 3128 3127 3126
3139 3141 3143 3145 3147 3148 3149 3150 3150 3151 3151 3151 3153 3152 3151 3152 3153 3153 3153 3152 3151 3150 3149 3149 3148 3148 3147 3146 3145 3144 3142 3140 3136 3135 3133 3130 3128 3126 3125 3124 3123 3122 3120
3134 3136 3139 3141 3143 3144 3145 3146 3146 3146 3147 3147 3148 3149 3149 3149 3149 3150 3150 3149 3148 3146 3145 3144 3144 3144 3144 3143 3141 3139 3137 3135 3132 3130 3129 3126 3124 3121 3120 3119 3117 3116 3115
3129 3131 3134 3136 3138 3140 3141 3142 3142 3142 3143 3144 3143 3144 3145 3146 3146 3146 3146 3145 3144 3143 3142 3142 3141 3140 3140 3138 3137 3135 3134 3132 3129 3125 3124 3121 3119 3117 3115 3113 3112 3110 3109
3123 3125 3128 3130 3133 3134 3135 3137 3137 3138 3138 3138 3140 3140 3140 3142 3142 3141 3141 3141 3140 3140 3139 3137 3137 3136 3135 3134 3132 3131 3129 3128 3125 3122 3118 3116 3113 3111 3109 3108 3106 3104 3103
3117 3119 3121 3124 3126 3128 3129 3131 3132 3132 3133 3133 3134 3135 3136 3136 3137 3137 3137 3137 3136 3135 3134 3133 3132 3131 3130 3129 3128 3127 3125 3123 3120 3117 3113 3110 3107 3106 3103 3102 3100 3099 3097
3111 3113 3114 3117 3119 3121 3123 3125 3126 3127 3127 3128 3129 3130 3130 3131 3132 3132 3132 3132 3131 3130 3129 3128 3127 3127 3126 3125 3123 3121 3119 3116 3113 3110 3107 3104 3101 3098 3097 3096 3095 3094 3092
3104 3106 3108 3111 3113 3115 3117 3118 3119 3121 3121 3122 3123 3124 3125 3126 3126 3127 3127 3127 3126 3125 3125 3124 3123 3121 3120 3119 3117 3115 3113 3110 3107 3103 3100 3097 3095 3093 3091 3090 3089 3088 3086
3096 3099 3101 3104 3106 3107 3109 3110 3112 3113 3114 3115 3116 3117 3118 3120 3121 3121 3121 3121 3121 3120 3119 3118 3117 3116 3115 3114 3112 3110 3107 3104 3101 3097 3094 3092 3090 3089 3087 3085 3082 3080 3079
3088 3091 3093 3095 3097 3099 3101 3103 3105 3107 3108 3109 3110 3111 3112 3113 3114 3114 3115 3115 3115 3115 3114 3113 3112 3111 3110 3108 3107 3104 3101 3098 3095 3092 3089 3087 3084 3082 3081 3079 3077 3074 3071
3080 3082 3085 3087 3090 3092 3094 3096 3098 3100 3101 3102 3103 3104 3105 3106 3107 3108 3108 3109 3109 3109 3108 3108 3107 3106 3104 3103 3101 3098 3095 3093 3089 3086 3085 3082 3079 3077 3074 3072 3069 3067 3065
3072 3074 3077 3079 3082 3085 3086 3088 3090 3092 3092 3093 3094 3096 3098 3099 3100 3101 3101 3102 3103 3102 3102 3102 3101 3099 3098 3096 3095 3094 3090 3087 3083 3081 3079 3076 3074 3072 3069 3066 3064 3061 3060
3063 3065 3068 3071 3073 3075 3077 3080 3083 3085 3086 3087 3088 3089 3090 3091 3092 3093 3094 3095 3095 3095 3095 3095 3094 3093 3091 3089 3088 3086 3083 3081 3078 3075 3074 3071 3068 3065 3063 3060 3058 3056 3055
3054 3057 3059 3061 3063 3066 3068 3071 3075 3076 3077 3077 3079 3080 3081 3083 3085 3086 3087 3087 3088 3088 3089 3088 3088 3086 3085 3083 3080 3079 3076 3074 3072 3070 3067 3066 3064 3062 3059 3056 3053 3051 3050
3044 3046 3047 3049 3052 3055 3057 3061 3064 3067 3068 3069 3071 3073 3074 3075 3076 3078 3080 3080 3081 3081 3081 3081 3080 3079 3078 3076 3073 3071 3069 3067 3066 3062 3062 3061 3059 3057 3055 3051 3049 3046 3044